User: anonymous   Login
Location: *
(18.5200°S, 46.4500°E)
Time: 16:34:35
(UTC+00:00)
Language:

Cosmos 1300 - Orbit

View from above orbital plane
View from above orbital plane
View from above satellite
View from above satellite

Ground track
Ground track

The orbit data is extracted from the following two-line orbital elements,

1 12785U 81082A   19264.55214667  .00000416  00000-0  19151-4 0  9992
2 12785  82.5052 335.7923 0000620 124.6040 320.7253 15.17505050 77144
Epoch (UTC): 21 September 2019 13:15:05
Eccentricity: 0.0000620
inclination: 82.5052°
perigee height: 513 km
apogee height: 514 km
right ascension of ascending node: 335.7923°
argument of perigee: 124.6040°
revolutions per day: 15.17505050
mean anomaly at epoch: 320.7253°
orbit number at epoch: 7714

The dashed part of the orbit path shows where the satellite is in the earth's shadow,  

DLR